Regional Weather Roundup
Issued by NWS Upton, NY

Current Version | Previous Version | Graphics & Text | Print | Product List | Glossary Off
Versions: 1 2 3 4 5 6 7 8 9 10 11 12 13 14 15 16 17 18 19 20 21 22 23 24 25 26 27 28 29 30 31 32 33 34 35 36 37 38 39 40 41 42 43 44 45 46 47 48 49 50

000
ASUS41 KOKX 021005
RWROKX

REGIONAL WEATHER ROUNDUP
NATIONAL WEATHER SERVICE NEW YORK NY
600 AM EDT TUE SEP 02 2014

NOTE: "FAIR" INDICATES FEW OR NO CLOUDS BELOW 12,000 FEET WITH NO
SIGNIFICANT WEATHER AND/OR OBSTRUCTIONS TO VISIBILITY.

NYZ071-072-176-178-NJZ106-104-021100-
NEW YORK CITY METRO AREA


CITY           SKY/WX    TMP DP  RH WIND       PRES   REMARKS
CENTRAL PARK   CLEAR     78  72  81 VRB5      29.93R
LAGUARDIA APRT PTCLDY    79  72  79 SW3       29.89S
KENNEDY INTL   CLEAR     75  72  90 SW6       29.91S
NEWARK/LIBERTY PTCLDY    76  73  91 SW6       29.90R
BRNX BOT. GARD   N/A     77  72  83 SW9       29.91R
TETERBORO      CLEAR     75  71  87 CALM      29.89S
$$

NYZ177-179-078>081-021100-
LONG ISLAND NEW YORK

CITY           SKY/WX    TMP DP  RH WIND       PRES   REMARKS
FARMINGDALE    CLEAR     73  72  96 SW3       29.91R
ISLIP          CLOUDY    74  73  97 S5        29.89R FOG
SHIRLEY        CLEAR     74  73  97 SW3       29.91S FOG
WESTHAMPTON    FOG       74  73  97 SW5       29.92S VSB 3/4
MONTAUK POINT    N/A     72  71  97 SE3       29.92R
$$

NYZ052-065-067-021100-
HUDSON VALLEY

CITY           SKY/WX    TMP DP  RH WIND       PRES   REMARKS
WHITE PLAINS   CLEAR     73  71  93 CALM      29.90F
NEWBURGH       CLEAR     72  72 100 CALM      29.91F
MONTGOMERY     FOG       68  66  93 CALM      29.90R VSB 3/4
POUGHKEEPSIE   CLEAR     69  67  93 CALM      29.88S
ALBANY         PTCLDY    73  70  90 S7        29.87R
$$

NJZ001-105-106-008-010-013-015-019>022-104-021100-
NEW JERSEY

CITY           SKY/WX    TMP DP  RH WIND       PRES   REMARKS
NEWARK/LIBERTY PTCLDY    76  73  91 SW6       29.90R
TETERBORO      CLEAR     75  71  87 CALM      29.89S
CALDWELL       CLEAR     73  70  90 CALM      29.91S
MORRISTOWN     FOG       68  66  94 CALM      29.91R VSB 1
SOMERVILLE     MOCLDY    69  66  90 CALM      29.90R
LINDEN         FAIR      79  77  92 CALM      29.91S
SUSSEX         CLOUDY    69  67  93 CALM      29.91S FOG
ANDOVER          N/A     68  66  93 CALM      29.92S
TRENTON        CLEAR     72  71  97 CALM      29.90S FOG
MILLVILLE      CLEAR     73  71  93 W3        29.93R
ATLANTIC CITY  PTCLDY    74  73  97 SW5       29.93R
WRIGHTSTOWN    PTCLDY    72  72 100 S3        29.89S
TOMS RIVER     CLEAR     72  70  94 CALM      29.92S
BELMAR         CLEAR     73  70  88 SW3       29.91S
$$

PAZ047>061-062-071-021100-
EASTERN PENNSYLVANIA

CITY           SKY/WX    TMP DP  RH WIND       PRES   REMARKS
PHILADELPHIA   PTCLDY    76  71  85 SW7       29.92R
ALLENTOWN      CLEAR     68  66  94 CALM      29.92S FOG
SCRANTON       CLEAR     70  67  90 W3        29.92S FOG
$$

CTZ002-004>006-009-010-012-RIZ004-006-007-MAZ004-011-015-021100-
SOUTHERN NEW ENGLAND
 IN CT

CITY           SKY/WX    TMP DP  RH WIND       PRES   REMARKS
BRADLEY INTL   PTCLDY    73  70  90 S6        29.88S
HARTFORD       CLEAR     72  70  93 CALM      29.88S FOG
DANBURY        CLEAR     69  67  93 CALM      29.92S
WTRBRY/OXFORD  PTCLDY    70  66  88 CALM      29.93S FOG
BRIDGEPORT     CLEAR     75  73  93 S3        29.89S FOG
MERIDEN        CLOUDY    71  69  93 SE3       29.90R FOG
NEW HAVEN      FOG       72  69  90 CALM      29.89S VSB 1
CHESTER        FAIR      72  72 100 CALM      29.92S FOG
GROTON         CLOUDY    70  70 100 CALM      29.90S FOG
WILLIMANTIC    CLOUDY    70  69  97 CALM      29.91S FOG

 IN RI

CITY           SKY/WX    TMP DP  RH WIND       PRES   REMARKS
PROVIDENCE     FOG       71  70  96 S5        29.91S VSB 1/2
BLOCK ISLAND   CLOUDY    72  68  88 SW9       29.92S VSB 1/2
WESTERLY       FOG       71  70  96 CALM      29.91S VSB 1/4

 IN MA

CITY           SKY/WX    TMP DP  RH WIND       PRES   REMARKS
BOSTON         PTCLDY    72  70  93 S7        29.89S
WORCESTER      CLEAR     69  68  96 SW8       29.93R FOG
WESTFIELD      CLOUDY    70  69  97 CALM      29.89S FOG
PROVINCETOWN   CLEAR     70  68  94 S8        29.90S
NANTUCKET      FOG       69  69 100 SW6       29.92F VSB 1/4
$$

ANZ330-335-338-340-345-350-353-355-021100-
COASTAL MARINE OBSERVATIONS


STATION/POSITION TIME  SKY/WX   TEMP    WIND        PRES    VSBY  WAVE
                                AIR SEA DIR/SP/G                  HT/PER
                 (UTC)          (F)     (DEG/KT/KT) (MB)    (MI)  (FT/S)
NY HARB ENTRANCE NOT AVBL
4S FIRE IS       NOT AVBL
23SW MTP         1000                                 N/A           3/ 6
HUDSON CANYON    1000            74 74  230/  8/ 10 1013.3          3/ 5
EXECUTION ROCKS  1000            76 74  200/  4/  6   N/A
WESTERN LI SOUND 1000            76     250/  4/  4   N/A           0
CENTRAL LI SOUND 0900            73 74  210/  4/  4   N/A           1
EASTERN LI SOUND 0900            71 69  150/  2/  4   N/A
ROBBINS REEF     1000            77     260/  8/ 10   N/A
$$


>>>>>>>>>>>>>>>>>>>>>>>>>>>> KEY <<<<<<<<<<<<<<<<<<<<<<<<<<<
>                                                          <
>     SKY/WX - SKY CONDITION/PRESENT WEATHER               <
>     TMP    - TEMPERATURE IN FAHRENHEIT                   <
>     DP     - DEWPOINT IN FAHRENHEIT                      <
>     RH     - RELATIVE HUMIDITY IN PERCENT                <
>     WIND   - DIRECTION AND SPEED IN MPH                  <
>     PRES   - MEAN SEA LEVEL PRESSURE IN INCHES OF HG     <
>     WCI    - WIND CHILL INDEX                            <
>     VSB    - VISIBILITY IN MILES                         <
>     HX     - HEAT INDEX                                  <
>     TC     - TEMPERATURE IN CELSIUS                      <
>     VRB    - VARIABLE WIND DIRECTION                     <
>                                                          <
>>>>>>>>>>>>>>>>>>>>>>>>>>>> KEY <<<<<<<<<<<<<<<<<<<<<<<<<<<





USA.gov is the U.S. government's official web portal to all federal, state and local government web resources and services.